Location: Finnegan
(51.1333°N, 112.0833°W)
Time: 21:04:39
(UTC+00:00)

Envisat - Pass Details

Date: 04 December 2021
Orbit: 764 x 766 km, 98.2° (Epoch: 26 January)

Event Time Altitude Azimuth Distance (km) Brightness Sun altitude
Rises 00:07:49 0° 186° (S) 3,221 6.7 -6.8°
Reaches altitude 10° 00:10:15 10° 194° (SSW) 2,299 6.1 -7.1°
Maximum altitude 00:15:00 39° 263° (W) 1,138 4.6 -7.8°
Drops below altitude 10° 00:19:46 10° 333° (NNW) 2,316 5.5 -8.5°
Sets 00:22:15 0° 341° (NNW) 3,248 6.2 -8.8°
